Regional Weather Roundup
Issued by NWS

Home | Current Version | Previous Version | Text Only | Print | Product List | Glossary Off
Versions: 1 2 3 4 5 6 7 8 9 10 11 12 13 14 15 16 17 18 19 20 21 22 23 24 25 26 27 28 29 30 31 32 33 34 35 36 37 38 39 40 41 42 43 44 45 46 47 48 49 50

000
ASUS43 KLOT 011700
RWRIL

ILLINOIS REGIONAL WEATHER ROUNDUP
NATIONAL WEATHER SERVICE CHICAGO/ROMEOVILLE IL
1200 PM CDT WED JUL 01 2015

NOTE: "FAIR" INDICATES FEW OR NO CLOUDS BELOW 12,000 FEET WITH NO
SIGNIFICANT WEATHER AND/OR OBSTRUCTIONS TO VISIBILITY.

* THESE STATIONS ARE NOT UNDER NWS QUALITY CONTROL. THEY ALSO MAY NOT
  REPORT WEATHER SUCH AS PRECIPITATION OR FOG.

ILZ001-002-007-009-015-016-024-011800-
NORTHWEST ILLINOIS

CITY           SKY/WX    TMP DP  RH WIND       PRES   REMARKS
MOLINE         CLOUDY    68  60  75 E10       29.95F
STERLING*      PTSUNNY   70  61  73 E8        29.96F
$$

ILZ003-004-008-010-011-017-018-011800-
NORTH CENTRAL ILLINOIS

CITY           SKY/WX    TMP DP  RH WIND       PRES   REMARKS
ROCKFORD       CLOUDY    68  56  65 VRB7      29.99S
$$

ILZ005-006-012>014-019>023-011800-
NORTHEAST ILLINOIS

CITY           SKY/WX    TMP DP  RH WIND       PRES   REMARKS
CHICAGO-OHARE  PTSUNNY   68  55  63 N8        29.97S
CHICAGO-MIDWAY PTSUNNY   67  54  63 NE8       29.97S
AURORA         SUNNY     68  57  68 NE6       29.97S
LANSING*       MOSUNNY   65  53  64 E7        29.98S
WAUKEGAN       SUNNY     59  50  72 NE9       29.98S
DUPAGE AIRPORT PTSUNNY   69  57  65 N5        29.97S
WHEELING       PTSUNNY   67  55  65 N10G17    29.98F
NORTHERLY ISL    N/A     60  53  77 NE8         N/A
$$

LMZ740>746-011800-
SOUTHERN LAKE MICHIGAN

STATION/POSITION SKY/WX   TEMP    WIND        PRES    VSBY  WAVE
                          AIR SEA DIR/SP/G                  HT/PER
                          (F)     (DEG/KT/KT) (MB)    (MI)  (FT/S)
HARRISON CRIB              56      30/  9/ 10   N/A
BURNHAM HARBOR             60      40/  5/  8   N/A
CALUMET HARBOR             58      20/  9/ 11   N/A
BURNS HARBOR               58      20/  9/ 10 1015.9S
MICHIGAN CITY              58     350/ 10/ 12   N/A
MICHIGAN CITY 6N           57 65   30/  8/ 12   N/A           3/ 6
ST. JOSEPH                 58 63                N/A           4/ 6
$$

ILZ025>027-034>036-040-047-049-050-058-095>099-011800-
WEST-CENTRAL ILLINOIS

CITY           SKY/WX    TMP DP  RH WIND       PRES   REMARKS
QUINCY         PTSUNNY   80  67  64 CALM      29.91S HX  82
MACOMB*        PTSUNNY   76  70  81 NE5       29.94S
$$

ILZ028>032-037-038-041>044-048-051>054-059>061-011800-
CENTRAL ILLINOIS

CITY           SKY/WX    TMP DP  RH WIND       PRES   REMARKS
DECATUR        PTSUNNY   75  68  78 CALM      29.93S HAZE
PEORIA         PTSUNNY   74  64  71 VRB6      29.94S
SPRINGFIELD    MOSUNNY   81  69  67 NW3       29.91F HX  84
TAYLORVILLE    NOT AVBL
$$

ILZ033-039-045-046-055>057-062-063-011800-
EAST-CENTRAL ILLINOIS

CITY           SKY/WX    TMP DP  RH WIND       PRES   REMARKS
CHAMPAIGN      CLOUDY    70  64  81 E3        29.94S
MATTOON        PTSUNNY   75  69  81 VRB6      29.92F
$$

ILZ079-100>102-011800-
SOUTHWEST ILLINOIS

CITY           SKY/WX    TMP DP  RH WIND       PRES   REMARKS
ALTON          CLOUDY    77  75  94 SW9       29.93F
CAHOKIA*       CLOUDY    79  68  69 VRB6      29.92F HX  81
SPARTA*        CLOUDY    74  68  83 SW6       29.96F
$$

ILZ064>066-069>071-074>076-080>082-084>086-088>090-092>094-011800-
SOUTH-CENTRAL ILLINOIS

CITY           SKY/WX    TMP DP  RH WIND       PRES   REMARKS
CARBONDALE     CLOUDY    74  69  85 W9        29.97S
MARION         CLOUDY    75  70  83 SW9       29.98S
MT. VERNON     CLOUDY    75  66  73 SW10      29.96S
SALEM*         CLOUDY    76  71  83 SW5       29.95F HAZE
$$

ILZ067-068-072-073-078-083-087-091-011800-
SOUTHEAST ILLINOIS

CITY           SKY/WX    TMP DP  RH WIND       PRES   REMARKS
LAWRENCEVILLE  CLOUDY    75  70  84 SW10      29.94S
HARRISBURG*    CLOUDY    75  71  89 SW6       29.98S
CARMI*         HVY RAIN  71  64  77 W6        29.96S
$$

ABBREVIATIONS USED IN REMARKS
   TC - TEMPERATURE IN CELSIUS
  WCI - WIND CHILL INDEX
   HX - HEAT INDEX
  VSB - VISIBILITY
$$




USA.gov is the U.S. government's official web portal to all federal, state and local government web resources and services.